User: anonymous   Login
Location: Unspecified
(48.8330°N, 0.0000°E)
Time: 19:42:46
(UTC+00:00)
Language:

N. Korean satellite - Orbit

View from above orbital plane
View from above orbital plane
View from above satellite
View from above satellite

Ground track
Ground track

The orbit data is extracted from the following two-line orbital elements,

1 39026U 12072A   19233.91225703 +.00000612 +00000-0 +24732-4 0  9990
2 39026 097.2125 234.9877 0036492 231.3565 128.4407 15.27929197371343
Epoch (UTC): 21 August 2019 21:53:39
Eccentricity: 0.0036492
inclination: 97.2125°
perigee height: 457 km
apogee height: 507 km
right ascension of ascending node: 234.9877°
argument of perigee: 231.3565°
revolutions per day: 15.27929197
mean anomaly at epoch: 128.4407°
orbit number at epoch: 37134

The dashed part of the orbit path shows where the satellite is in the earth's shadow,  

DLR